Notices

What's New in latest Release from April 7th, 2021:

- Updated Glossary, including Speed of Maximum Gust, and Total Hourly Precipitation

- Updated national and regional climate services offices contacts and prices information

- Addition of station inventory lists for 1981-2010, 1971-2000, and 1961-1990 Normals.

Please note that as of June 10, 2021 UTC dates are available for all years 2004-present, and DBA is working on populating the remaining years (2003 to 1953).

If you haven't already, please take our survey and provide feedback about our website: https://eccc.sondage-survey.ca/f/LanguageSelection.aspx?s=442ca660-fcf1-47c0-95a9-59707d6fd709

Hourly Data Report for November 26, 2020

VICTORIA UNIVERSITY CS
BRITISH COLUMBIA
Current Station Operator: ECCC - MSC

48°27'25.200" N
123°18'16.600" W
60.10 m
1018598
71783
WYJ

Download Data

Hourly Data (November 2020)
Hourly Data Report for November 26, 2020
TIME
LST
Temp Definition
°C
Dew Point Definition
°C
Rel Hum Definition
%
Precip. Amount Definition
mm

Wind Dir Definition
10's deg

Wind Spd Definition
km/h
Visibility Definition
km
Stn Press Definition
kPa
Hmdx Definition


Wind Chill Definition


Weather Definition


00:00 6.6 5.7 94 0.0 33 5   101.94     LegendNANA
01:00 6.0 5.7 98 0.0 1 4   101.96     LegendNANA
02:00 5.1 5.0 99 0.0 23 3   101.99     LegendNANA
03:00 4.1 4.1 100 0.0 30 3   102.09     LegendNANA
04:00 3.7 3.6 99 0.0   0   102.05     LegendNANA
05:00 4.4 4.3 100 0.0 22 2   102.04     LegendNANA
06:00 4.9 4.8 100 0.0 25 2   102.07     LegendNANA
07:00 5.4 5.3 100 0.0 24 2   102.10     LegendNANA
08:00 5.6 5.5 99 0.0 0 1   102.12     LegendNANA
09:00 6.4 5.6 94 0.0 23 3   102.20     LegendNANA
10:00 7.4 6.0 91 0.0 18 7   102.22     LegendNANA
11:00 7.8 6.2 90 0.0 14 4   102.24     LegendNANA
12:00 7.4 5.7 89 0.0 14 5   102.22     LegendNANA
13:00 7.2 6.0 92 0.0 14 4   102.21     LegendNANA
14:00 7.1 5.7 91 0.0 13 2   102.17     LegendNANA
15:00 7.6 5.7 88 0.0 16 8   102.13     LegendNANA
16:00 7.6 6.4 92 0.0 17 5   102.12     LegendNANA
17:00 7.6 6.6 93 0.0 14 3   102.09     LegendNANA
18:00 7.8 7.2 96 0.0 18 3   102.04     LegendNANA
19:00 8.1 6.5 89 0.0 16 4   101.98     LegendNANA
20:00 8.0 7.1 94 0.0 17 6   101.97     LegendNANA
21:00 7.8 7.0 94 0.0 15 5   101.99     LegendNANA
22:00 7.1 6.6 96 0.0 13 4   101.93     LegendNANA
23:00 7.4 6.8 96 0.0 14 4   101.95     LegendNANA

Notes on Data Quality.

Legend

  • E = Estimated
  • M = Missing
  • NA = Not Available*
  • [empty] = Indicates an unobserved value
Date modified: